Wind_Speed
8 9 9 10 10 11 11 11 11 11 11 11 11 12 13 13 12 12 13 12 12 12 12 12 11 12 13 13 14 15 15 15 15 15 15 16 17 17 18 18 18 19 19
9 9 9 9 10 10 10 11 11 11 11 12 12 13 14 14 13 13 13 12 13 12 12 12 12 12 13 14 14 15 15 15 15 15 16 16 16 16 17 18 18 19 20
8 8 9 10 10 10 10 11 11 11 12 12 13 13 13 13 13 13 12 12 12 12 11 12 12 12 12 13 14 15 15 15 15 16 16 16 15 15 16 18 19 20 21
8 8 9 9 9 10 10 11 11 11 12 12 13 13 12 12 12 12 11 11 11 11 11 11 12 12 12 13 14 14 14 15 15 15 15 15 16 16 17 18 19 20 21
10 10 10 10 10 10 11 11 12 12 12 12 12 12 13 13 13 12 11 10 11 11 11 12 12 12 12 13 13 13 14 14 14 14 15 16 16 17 18 18 19 19 20
10 10 10 10 10 10 11 11 11 11 11 12 12 12 12 13 12 11 11 10 11 11 11 12 12 12 13 13 13 13 14 14 14 14 15 16 17 17 17 18 18 19 19
10 10 10 10 10 11 11 11 11 11 11 10 11 11 12 12 12 12 12 11 11 12 12 12 12 13 12 12 12 13 14 14 14 15 15 16 17 18 18 18 18 18 19
11 11 11 11 11 11 10 10 10 10 9 9 9 10 11 11 12 12 11 12 12 12 13 13 13 13 13 13 13 14 14 14 14 15 16 17 17 18 18 18 19 19 20
11 11 11 11 12 12 11 11 11 10 9 9 9 10 11 11 11 11 11 11 12 12 12 12 12 12 13 13 14 14 14 15 15 15 17 17 18 18 18 19 19 20 20
12 12 11 11 12 11 11 11 11 10 10 10 10 11 11 12 11 11 11 11 10 11 11 12 12 12 12 13 13 14 14 14 15 16 17 17 17 17 18 19 20 20 20
13 13 13 12 12 12 11 11 11 11 11 11 11 11 12 11 11 11 11 11 11 11 12 12 12 12 12 12 13 13 14 14 15 15 16 16 17 17 17 18 19 19 20
13 14 13 13 13 12 12 12 11 11 11 11 11 12 11 11 11 11 12 12 13 13 13 13 13 13 13 13 13 14 14 14 14 14 15 15 17 18 18 19 19 20 21
14 14 14 14 14 13 12 12 12 12 12 12 11 11 12 12 11 12 12 13 14 14 14 14 14 14 14 14 14 14 15 15 14 14 15 16 17 18 18 19 19 20 20
15 15 15 14 14 14 14 13 13 12 11 11 10 11 11 11 12 12 13 13 14 14 14 14 15 15 15 14 15 15 15 15 15 15 16 17 18 18 18 19 19 20 20
16 16 15 15 14 14 13 13 13 12 12 11 11 11 11 12 12 13 13 14 14 14 15 15 15 15 15 15 15 15 15 15 15 15 16 17 18 18 19 20 20 20 20
17 16 16 15 15 14 14 14 13 13 13 12 12 12 12 12 13 14 14 15 15 14 15 15 15 15 16 16 15 15 15 15 15 16 17 18 18 18 19 20 20 21 21
18 17 17 16 15 15 15 15 15 14 14 14 13 13 13 13 14 14 15 14 14 15 15 15 15 15 16 16 15 15 15 15 16 16 17 18 19 19 19 20 21 21 21
19 18 18 17 17 16 16 15 15 15 15 14 14 15 15 15 15 15 15 15 14 14 14 14 15 15 15 16 16 16 17 17 17 17 18 19 20 20 20 21 21 21 21
20 20 20 19 18 17 16 16 15 15 15 15 15 15 15 16 16 16 16 16 15 15 14 15 15 16 16 17 17 17 17 17 17 18 19 20 20 21 21 22 22 22 22
20 20 20 19 18 18 18 17 17 17 16 16 16 16 16 16 16 16 16 16 15 15 16 16 16 17 17 17 17 16 16 17 18 19 19 20 20 21 22 23 23 23 23
21 20 19 19 18 18 19 18 18 18 18 17 16 16 16 16 16 16 15 15 16 16 16 16 17 17 17 16 16 16 17 17 18 19 19 20 21 21 22 23 23 22 22
22 22 21 20 19 19 19 19 19 18 17 17 17 17 17 17 17 16 16 16 16 17 17 18 18 17 17 17 17 17 18 18 18 19 20 21 22 22 22 22 22 21 21
22 22 21 20 20 20 20 19 18 18 18 18 18 18 18 18 17 17 17 17 17 18 18 18 17 17 16 17 18 18 19 19 20 20 21 22 22 23 22 22 21 21 21
22 22 21 21 20 20 20 20 20 20 19 19 19 19 19 19 19 18 18 18 18 19 19 19 18 18 18 18 19 20 20 20 20 21 22 22 23 23 23 23 23 23 22
23 23 23 22 22 21 21 22 22 21 21 21 20 20 20 20 20 20 20 20 20 20 20 19 19 19 19 19 20 20 21 21 21 22 23 24 24 25 25 25 24 24 23
24 23 23 23 23 22 22 21 22 23 23 23 22 22 21 21 21 21 21 21 21 21 21 20 21 21 21 22 22 22 22 22 22 23 24 25 25 26 26 26 25 25 24
Wind_Direction
279 277 275 275 276 276 277 280 283 281 282 285 291 295 291 291 293 290 285 283 282 279 280 281 279 276 271 272 273 273 274 275 276 275 275 275 276 276 276 276 276 276 276
279 277 277 277 278 277 282 283 283 284 284 286 292 296 294 290 292 291 287 283 279 277 278 278 278 276 273 272 273 273 275 275 277 276 276 278 278 277 276 276 277 279 280
285 278 281 278 279 281 286 286 284 286 288 290 293 295 294 291 292 292 289 284 277 275 274 274 275 275 275 274 274 275 276 275 277 277 278 279 279 281 280 279 278 279 280
289 286 289 283 282 284 289 289 289 291 291 289 292 293 293 294 295 293 287 284 278 274 274 273 274 275 276 276 277 277 278 277 278 279 279 281 282 284 285 286 284 283 283
291 290 292 287 284 284 286 286 288 290 291 292 292 291 292 294 298 294 287 283 281 279 276 275 276 276 278 279 279 280 279 279 280 280 279 281 284 288 288 288 287 286 287
289 287 290 286 283 283 284 287 290 292 293 293 293 292 292 293 296 293 289 286 285 284 281 278 280 281 280 278 278 278 280 281 282 281 281 282 285 288 291 293 291 290 292
292 289 288 288 286 287 286 288 290 292 293 295 295 292 292 293 297 297 292 287 287 288 286 284 283 284 279 277 277 279 282 282 284 283 282 283 286 288 290 293 296 297 294
294 292 291 289 288 287 287 289 290 292 293 295 294 294 293 294 297 297 294 291 291 290 287 284 283 285 282 277 278 280 282 284 285 284 285 286 287 288 290 293 297 299 299
298 296 294 291 291 287 287 288 290 291 291 294 295 297 298 299 298 295 294 297 295 292 290 289 291 293 291 285 282 282 283 284 284 284 286 287 289 290 291 294 297 299 298
292 291 292 290 292 287 286 284 287 286 288 291 292 296 297 299 299 295 295 298 296 297 298 297 295 295 295 292 290 289 289 289 287 285 287 289 291 292 293 295 298 298 298
287 287 290 291 290 288 285 282 285 286 287 287 288 292 296 299 299 295 294 295 296 298 302 301 298 297 294 293 295 296 295 294 293 291 289 290 292 295 297 299 300 300 301
282 286 287 289 291 287 284 285 285 286 286 286 287 290 293 294 299 298 296 296 296 296 299 299 299 299 296 294 296 298 299 300 299 297 295 295 296 297 299 300 301 303 304
278 281 283 287 289 286 285 284 283 286 287 286 287 288 289 291 295 297 297 297 297 298 299 299 297 299 299 297 298 300 302 301 298 299 301 302 302 301 303 304 304 306 306
277 278 282 285 286 285 284 282 281 284 286 284 283 284 287 288 292 296 297 298 298 298 298 298 297 297 297 295 295 297 299 298 298 299 301 304 305 305 305 306 307 307 307
276 277 283 286 286 285 283 281 282 282 283 281 280 282 285 287 291 295 298 298 297 297 298 297 295 294 294 294 294 294 297 297 298 301 303 305 307 308 308 309 309 309 308
276 278 280 283 285 284 284 283 282 281 282 281 278 281 283 284 288 292 295 295 295 297 299 300 298 295 295 295 292 294 297 297 298 300 303 307 308 309 309 309 309 311 310
274 277 277 278 281 283 283 281 281 280 280 279 277 280 285 288 291 292 293 294 294 296 298 300 299 297 296 295 293 293 295 296 299 302 305 308 308 308 309 311 311 311 311
272 274 275 273 275 279 279 281 279 276 275 276 277 279 282 287 290 291 292 293 295 296 298 300 300 299 298 295 293 293 294 295 298 301 304 306 307 309 310 311 312 312 312
273 275 277 272 271 274 276 276 275 276 275 275 276 277 280 282 285 287 288 292 294 294 296 299 301 302 302 300 297 295 296 297 299 301 304 305 307 309 310 310 311 312 312
272 274 275 270 269 271 273 274 272 274 274 275 276 277 279 281 284 286 289 293 295 295 294 296 300 302 303 304 302 300 299 300 301 304 306 307 308 309 310 311 311 311 310
270 273 273 271 270 271 272 272 271 271 271 271 272 273 275 278 283 287 290 294 296 296 296 297 299 303 305 305 305 304 302 303 304 305 307 308 308 309 311 312 312 311 310
270 271 272 270 268 270 271 271 272 269 267 266 266 268 271 275 279 282 286 291 294 296 297 298 298 299 302 303 305 305 304 305 306 308 310 310 310 310 310 310 310 312 313
268 268 267 267 268 267 267 267 268 266 264 265 266 267 270 273 277 279 282 287 290 293 294 297 298 298 299 302 304 304 303 304 305 306 308 311 311 311 312 312 311 312 312
264 264 265 267 268 268 265 265 264 263 262 264 264 266 269 271 274 277 281 284 288 291 293 293 296 298 298 299 300 302 303 304 304 304 306 308 309 310 311 312 312 313 312
262 263 265 266 266 267 266 264 263 262 262 265 266 267 268 270 274 276 278 281 284 287 289 291 292 295 297 298 299 300 302 302 302 304 305 306 307 308 309 309 310 309 309
261 262 263 263 263 265 265 265 264 263 263 264 266 269 269 269 271 274 277 279 282 284 285 287 290 292 293 294 295 297 298 300 301 302 304 305 306 307 307 307 307 307 307
Height
5793 5793 5793 5793 5793 5793 5793 5793 5793 5792 5792 5791 5790 5789 5788 5786 5785 5784 5783 5783 5782 5782 5782 5781 5781 5781 5781 5781 5781 5781 5781 5781 5781 5780 5780 5779 5779 5779 5778 5778 5777 5777 5776
5790 5790 5790 5790 5790 5790 5790 5789 5789 5788 5788 5787 5786 5785 5784 5783 5781 5780 5779 5779 5778 5778 5778 5778 5777 5777 5777 5777 5777 5777 5777 5776 5776 5776 5775 5774 5774 5773 5773 5772 5772 5771 5770
5787 5787 5787 5787 5787 5787 5786 5786 5785 5784 5784 5783 5782 5781 5780 5779 5777 5776 5775 5774 5774 5774 5774 5774 5773 5773 5773 5772 5772 5772 5772 5772 5771 5771 5770 5770 5769 5768 5767 5767 5766 5765 5764
5785 5785 5785 5784 5784 5784 5783 5782 5781 5780 5780 5779 5778 5777 5776 5775 5774 5772 5771 5771 5770 5770 5770 5770 5770 5769 5769 5768 5768 5767 5767 5767 5766 5766 5765 5765 5764 5763 5762 5761 5760 5759 5757
5783 5782 5782 5782 5781 5780 5779 5778 5777 5776 5776 5775 5774 5774 5773 5772 5770 5769 5768 5767 5767 5766 5766 5766 5766 5765 5764 5764 5763 5763 5762 5762 5762 5761 5761 5760 5759 5758 5757 5756 5754 5753 5751
5780 5780 5779 5779 5778 5777 5776 5775 5773 5772 5772 5771 5770 5770 5769 5768 5767 5766 5765 5764 5764 5763 5763 5762 5762 5761 5760 5760 5759 5759 5758 5758 5757 5756 5756 5755 5754 5753 5752 5750 5749 5747 5746
5778 5777 5776 5775 5774 5773 5772 5771 5770 5769 5768 5767 5767 5767 5766 5765 5764 5763 5762 5761 5761 5760 5759 5758 5758 5757 5756 5756 5755 5755 5754 5753 5753 5752 5752 5751 5750 5748 5747 5745 5743 5742 5740
5775 5774 5773 5772 5771 5770 5769 5768 5767 5766 5765 5764 5764 5763 5763 5762 5761 5760 5759 5758 5758 5757 5756 5755 5754 5753 5752 5751 5751 5750 5750 5749 5748 5748 5747 5746 5744 5743 5741 5740 5738 5736 5735
5772 5771 5770 5769 5768 5767 5766 5766 5765 5764 5763 5762 5761 5761 5760 5759 5758 5757 5756 5755 5754 5753 5752 5751 5750 5749 5748 5747 5747 5746 5745 5745 5743 5742 5741 5740 5739 5738 5736 5735 5733 5731 5729
5769 5768 5768 5767 5766 5765 5764 5763 5762 5761 5760 5760 5759 5758 5757 5756 5755 5754 5753 5752 5751 5750 5749 5748 5747 5746 5745 5744 5743 5742 5741 5740 5739 5738 5737 5735 5734 5732 5731 5730 5728 5726 5724
5766 5765 5764 5763 5762 5761 5760 5760 5759 5758 5758 5757 5756 5755 5754 5753 5752 5751 5750 5749 5748 5748 5746 5745 5744 5742 5742 5741 5739 5738 5737 5736 5734 5733 5732 5731 5729 5728 5726 5724 5722 5721 5719
5762 5761 5760 5759 5759 5758 5757 5756 5756 5755 5754 5754 5753 5752 5751 5750 5749 5748 5747 5746 5745 5745 5744 5742 5741 5739 5738 5737 5736 5735 5733 5732 5730 5729 5728 5726 5725 5723 5721 5719 5717 5715 5713
5758 5757 5757 5756 5755 5754 5753 5753 5752 5752 5751 5750 5749 5749 5748 5747 5746 5745 5744 5743 5742 5741 5740 5739 5737 5736 5734 5733 5732 5731 5729 5728 5727 5726 5724 5723 5721 5719 5717 5715 5712 5710 5708
5754 5753 5753 5752 5751 5750 5749 5749 5748 5748 5747 5747 5746 5745 5744 5744 5743 5742 5741 5740 5739 5737 5736 5735 5733 5732 5730 5729 5728 5727 5726 5724 5723 5722 5721 5719 5717 5714 5712 5710 5708 5705 5703
5749 5749 5748 5747 5747 5746 5745 5745 5744 5744 5743 5743 5742 5742 5741 5741 5740 5739 5738 5736 5735 5733 5732 5731 5729 5728 5726 5725 5724 5723 5722 5720 5719 5718 5716 5714 5712 5710 5707 5705 5703 5700 5698
5744 5744 5743 5743 5742 5742 5741 5741 5740 5740 5739 5739 5739 5738 5738 5737 5736 5735 5734 5732 5731 5730 5728 5726 5725 5723 5722 5721 5720 5719 5718 5716 5715 5714 5712 5710 5708 5705 5703 5701 5698 5695 5693
5739 5738 5738 5737 5737 5737 5736 5736 5736 5736 5735 5735 5735 5734 5734 5733 5732 5731 5730 5728 5727 5725 5724 5722 5720 5719 5718 5716 5715 5714 5713 5712 5711 5709 5707 5705 5703 5701 5698 5696 5693 5691 5688
5733 5733 5732 5732 5732 5732 5731 5731 5731 5731 5731 5730 5730 5730 5729 5728 5728 5727 5725 5724 5723 5721 5719 5718 5716 5715 5714 5712 5711 5710 5708 5707 5706 5704 5702 5700 5698 5696 5694 5691 5688 5686 5683
5727 5727 5727 5726 5726 5726 5726 5726 5726 5725 5725 5725 5725 5725 5724 5723 5723 5722 5721 5720 5718 5717 5716 5714 5712 5711 5709 5707 5706 5705 5704 5702 5701 5699 5697 5695 5693 5691 5688 5686 5683 5680 5677
5721 5721 5721 5721 5721 5721 5720 5720 5720 5720 5720 5720 5720 5720 5719 5718 5718 5717 5716 5715 5714 5713 5711 5710 5708 5706 5705 5703 5701 5700 5699 5697 5696 5694 5692 5690 5688 5686 5683 5680 5678 5675 5672
5714 5714 5714 5714 5714 5714 5714 5714 5714 5714 5714 5715 5715 5714 5714 5714 5713 5713 5712 5711 5710 5709 5707 5706 5704 5702 5701 5699 5697 5696 5695 5693 5691 5689 5687 5685 5683 5680 5678 5675 5672 5669 5666
5707 5707 5708 5708 5708 5708 5708 5708 5708 5708 5708 5709 5709 5709 5709 5708 5708 5708 5707 5706 5705 5704 5703 5701 5700 5698 5697 5695 5694 5692 5691 5689 5687 5685 5683 5680 5678 5675 5672 5670 5667 5664 5661
5699 5700 5700 5700 5701 5701 5701 5701 5701 5702 5702 5703 5703 5703 5703 5703 5703 5703 5702 5701 5700 5699 5698 5696 5695 5694 5692 5691 5689 5688 5686 5684 5682 5680 5678 5675 5673 5670 5667 5664 5661 5658 5656
5692 5692 5693 5693 5693 5693 5694 5694 5695 5695 5696 5696 5697 5697 5697 5697 5697 5697 5696 5696 5695 5694 5693 5691 5690 5689 5688 5686 5684 5683 5681 5679 5677 5675 5673 5670 5668 5665 5662 5659 5656 5653 5650
5684 5685 5685 5686 5686 5686 5687 5687 5688 5688 5689 5689 5690 5690 5690 5690 5691 5690 5690 5690 5689 5688 5687 5686 5685 5684 5682 5681 5679 5678 5676 5674 5672 5670 5667 5665 5662 5659 5656 5653 5650 5647 5644
5675 5676 5677 5678 5678 5678 5679 5679 5680 5681 5681 5682 5683 5683 5683 5683 5684 5684 5683 5683 5682 5682 5681 5680 5679 5678 5676 5675 5673 5672 5670 5668 5666 5664 5661 5658 5656 5653 5650 5647 5644 5641 5638